Regional Weather Roundup
Issued by NWS Charleston, SC

Current Version | Previous Version | Text Only | Print | Product List | Glossary Off
Versions: 1 2 3 4 5 6 7 8 9 10 11 12 13 14 15 16 17 18 19 20 21 22 23 24 25 26 27 28 29 30 31 32 33 34 35 36 37 38 39 40 41 42 43 44 45 46 47 48 49 50

581
ASUS42 KCHS 042313
RWRCHS

REGIONAL WEATHER ROUNDUP
NATIONAL WEATHER SERVICE CHARLESTON SC
700 PM EDT WED MAY 04 2016

NOTE: "FAIR" INDICATES FEW OR NO CLOUDS BELOW 12,000 FEET WITH NO
SIGNIFICANT WEATHER AND/OR OBSTRUCTIONS TO VISIBILITY.

NOT ALL STATIONS ARE QUALITY CONTROLLED. USE DATA WITH CAUTION...
ESPECIALLY DEWPOINT OBSERVATIONS.

SCZ027-030-031-034>040-042>050-050000-
...SOUTHEAST SOUTH CAROLINA...

CITY           SKY/WX    TMP DP  RH WIND       PRES   REMARKS
N CHARLESTON   MOSUNNY   77  42  28 W12       29.62S
WATERFRONT PRK   N/A     78  48  34 W7        29.59S
MOUNT PLEASANT FAIR      79  46  31 W10       29.61S
JOHNS ISLAND   FAIR      77  48  36 SW8       29.62S
PINOPOLIS        N/A     79  52  38 W12       29.52F
MONCKS CORNER  FAIR      73  39  29 W6        29.61S
SUMMERVILLE    FAIR      77  46  33 W9        29.63F
BEAUFORT MCAS  MOSUNNY   76  46  34 W9        29.64S
BEAUFORT ARPT  FAIR      77  43  29 W8        29.63F
HILTON HEAD IS MOSUNNY   79  46  31 W9        29.65F
WALTERBORO     CLEAR     77  39  25 W10G16    29.64S
ALLENDALE      FAIR      73  45  35 CALM      29.65S

...SOUTHERN MIDLANDS AND PEE DEE...

CITY           SKY/WX    TMP DP  RH WIND       PRES   REMARKS
GEORGETOWN     FAIR      77  46  33 W12       29.61R
KINGSTREE      FAIR      73  46  38 W10       29.61R
ORANGEBURG     SUNNY     74  42  31 NW8       29.64S
BARNWELL       FAIR      75  46  35 NW8       29.66S
AIKEN          FAIR      70  43  37 W6        29.70S
MANNING        FAIR      73  45  35 W9        29.62R
COLUMBIA       MOSUNNY   73  43  33 W14       29.64R
SUMTER         SUNNY     74  45  35 W9        29.60S
FLORENCE       SUNNY     76  49  38 W8        29.60S
MYRTLE BEACH   MOSUNNY   79  52  38 VRB6      29.60F
N MYRTLE BEACH MOSUNNY   77  54  44 W6        29.58S

$$

GAZ063-065-086>088-099>101-113>116-118-119-134>141-150-050000-
...SOUTHEAST GEORGIA...

CITY           SKY/WX    TMP DP  RH WIND       PRES   REMARKS
SAVANNAH ARPT  MOSUNNY   77  45  32 W10       29.65S
HUNTER AAF     SUNNY     77  51  40 NW12      29.62F
FORT STEWART   MOSUNNY   77  46  34 W8        29.64S
STATESBORO     SUNNY     77  52  41 W9G16     29.67S
SYLVANIA       CLEAR     76  49  38 NW8       29.67S
CLAXTON        FAIR      75  50  41 W9        29.67S

...CSRA...CENTRAL AND FAR SOUTHEAST GEORGIA...

CITY           SKY/WX    TMP DP  RH WIND       PRES   REMARKS
THOMSON        MOSUNNY   73  47  39 W7G17     29.72F
AUGUSTA-BUSH   MOSUNNY   73  44  35 NW10      29.66S
AUGUSTA-DANIEL SUNNY     73  43  33 W8        29.67F
SWAINSBORO     FAIR      73  43  33 NW12G18   29.69S
VIDALIA        SUNNY     73  46  38 NW10      29.69S
EASTMAN        FAIR      73  46  37 NW6       29.72S
HAZLEHURST     FAIR      75  47  36 NW5       29.68S
ALMA           MOSUNNY   75  47  36 NW12      29.68S
WAYCROSS       SUNNY     74  50  42 NW8       29.68R
JESUP          FAIR      79  52  38 NW7       29.67S
BAXLEY         FAIR      77  46  33 W10       29.68S
BRUNSWICK      CLOUDY    82  54  36 W8        29.66S
SAINT SIMONS   CLOUDY    74  64  71 MISG      29.65S

$$

SCZ027-028-034-036>038-045-046-048>050-GAZ119-141-050000-
...LAKE AND SUPPLEMENTAL COASTAL OBSERVATIONS...

STATION/POSITION TIME  TEMP    WIND        PRES    WAVE   SWELL
                       AIR SEA DIR/SP/G            HT/PER HT/PER/DIR
                 (UTC) (F)     (DEG/KT/KT) (MB)    (FT/S) (FT/S/D)
WINYAH BAY       2145   78     280/  9     1001.0
LAKE MURRAY      2200   71     260/ 13/ 19 1003.4S
ACE BASIN NERRS  NOT AVBL
FORT PULASKI     2200   76 75              1004.0F
SAPELO ISLAND    2200   78     230/ 10     1004.0S

$$

ANZ835-935-AMZ111-154-330-350-352-354-370-450-454-472-050000-
...C-MAN AND BUOY OBSERVATIONS...

STATION/POSITION TIME  TEMP    WIND        PRES    WAVE   SWELL
                       AIR SEA DIR/SP/G            HT/PER HT/PER/DIR
                 (UTC) (F)     (DEG/KT/KT) (MB)    (FT/S) (FT/S/D)
BUOY 41004       2250   74 75  230/ 19/ 21 1002.2F   4/ 4   2/ 9
BUOY 41008       NOT AVBL
FOLLY BEACH CMAN 2200   76     230/ 11/ 14 1003.2S
CAPERS NEARSHORE 2208   73 72  230/ 17/ 21 1002.2F
FRIPP NEARSHORE  2208   75 71  280/ 10/ 12 1002.7F


STATION/POSITION TIME  TEMP    WIND        PRES    WAVE   SWELL
                       AIR SEA DIR/SP/G            HT/PER HT/PER/DIR
                 (UTC) (F)     (DEG/KT/KT) (MB)    (FT/S) (FT/S/D)
5E ST. MARYS GA  2221      73                N/A     2/ 9
FRYING PAN BUOY  2200   73 73  240/ 16/ 19 1002.0S
BUOY 41025       2250   69 71   10/  6/  8 1001.6R   3/ 8   3/160/ 8
CAPE LOOKOUT NC  2200   71     240/  9/ 11 1000.9S
BUOY 41002       2250   74 74  170/ 17/ 21 1004.3R   5/ 7   2/ 50/ 9
BUOY 41010       2220   74 77  220/ 19/ 23 1007.1R
ST AUGUSTINE FL  2300   70 71  230/  4/  7 1004.9R


$$




USA.gov is the U.S. government's official web portal to all federal, state and local government web resources and services.